Edmonton, Alberta

9:49 PM MDT on May 25, 2017 (GMT -0600)
Edmonton International Airport

Weather History for CYEG - May, 2013

Change the Weather History Date:

Sunday, May 26, 2013

  Actual Average Record
Temperature  
Mean Temperature 51 °F -  
Max Temperature 67 °F 69 °F 78 °F (1998)
Min Temperature 35 °F 44 °F 30 °F (2008)
Degree Days  
Heating Degree Days 14    
Growing Degree Days 1 (Base 50)    
Moisture  
Dew Point 42 °F    
Average Humidity 72    
Maximum Humidity 100    
Minimum Humidity 30    
Precipitation  
Precipitation 0.00 in 0.09 in - ()
Sea Level Pressure  
Sea Level Pressure 29.97 in    
Wind  
Wind Speed 8 mph ()    
Max Wind Speed 16 mph    
Max Gust Speed 22 mph    
Visibility 15.0 miles    
Events Rain    
Averages and records for this station are not official NWS values.
T = Trace of Precipitation, MM = Missing Value Source: Averaged Metar Reports

Daily Weather History Graph

Daily Weather History Graph

Search for Another Location

Airport or City:

Trip Planner

Search our weather history database for the weather conditions in past years. The results will help you decide how hot, cold, wet, or windy it might be!

Date:

Astronomy

May. 26, 2013 Rise Set
Actual Time 5:18 AM MDT 9:44 PM MDT
Civil Twilight 4:31 AM MDT 10:32 PM MDT
Nautical Twilight 3:18 AM MDT 11:46 PM MDT
Astronomical Twilight 2:03 AM MDT 12:59 AM MDT
Moon 11:30 PM MDT 6:55 AM MDT
Length of Visible Light 18h 01m
Length of Day
16h 25m
Waning Gibbous, 96% of the Moon is Illuminated
May 26
Waning Gibbous
May 31
Last Quarter
Jun 8
New
Jun 16
First Quarter
Jun 23
Full

Hourly Weather History & Observations

Time (MDT) Temp. Windchill Dew Point Humidity Pressure Visibility Wind Dir Wind Speed Gust Speed Precip Events Conditions
12:00 AM 40 °F - 39 °F 94% 29.96 in 15 mi South 9.2 mph - -   Partly Cloudy
12:00 AM 41.0 °F 35.2 °F 39.2 °F 93% 29.96 in 15.0 mi South 9.2 mph - N/A   Partly Cloudy
1:00 AM 41.0 °F 35.8 °F 39.2 °F 93% 29.97 in 15.0 mi SSW 8.1 mph - N/A   Scattered Clouds
2:00 AM 39.2 °F 33.0 °F 37.4 °F 93% 29.98 in 15.0 mi South 9.2 mph - N/A   Partly Cloudy
3:00 AM 39.2 °F 33.6 °F 37.4 °F 93% 29.99 in 15.0 mi South 8.1 mph - N/A   Partly Cloudy
3:57 AM 35.6 °F 29.2 °F 35.6 °F 100% 29.99 in 15.0 mi South 8.1 mph - N/A   Partly Cloudy
4:00 AM 35.6 °F 29.9 °F 33.8 °F 93% 29.99 in 15.0 mi South 6.9 mph - N/A   Partly Cloudy
5:00 AM 35.6 °F 29.2 °F 33.8 °F 93% 30.00 in 15.0 mi SSE 8.1 mph - N/A   Scattered Clouds
6:00 AM 37 °F - 36 °F 96% 30.00 in 15 mi South 6.9 mph - -   Scattered Clouds
6:00 AM 37.4 °F 32.1 °F 35.6 °F 93% 30.00 in 15.0 mi SSW 6.9 mph - N/A   Partly Cloudy
7:00 AM 41.0 °F 35.8 °F 41.0 °F 100% 29.99 in 15.0 mi SSE 8.1 mph - N/A   Scattered Clouds
8:00 AM 46.4 °F 43.5 °F 44.6 °F 93% 29.99 in 15.0 mi South 5.8 mph - N/A   Scattered Clouds
9:00 AM 51.8 °F - 44.6 °F 76% 29.99 in 15.0 mi South 6.9 mph - N/A   Scattered Clouds
10:00 AM 55.4 °F - 42.8 °F 63% 29.99 in 15.0 mi SSW 6.9 mph - N/A   Scattered Clouds
11:00 AM 57.2 °F - 42.8 °F 59% 29.99 in 15.0 mi SSE 8.1 mph - N/A   Mostly Cloudy
12:00 PM 58 °F - 46 °F 54% 29.99 in 15 mi SSE 4.6 mph - -   Mostly Cloudy
12:00 PM 59.0 °F - 46.4 °F 63% 29.99 in 15.0 mi SE 5.8 mph - N/A   Mostly Cloudy
1:00 PM 60.8 °F - 44.6 °F 55% 29.98 in 15.0 mi South 8.1 mph - N/A   Mostly Cloudy
2:00 PM 60.8 °F - 42.8 °F 52% 29.97 in 15.0 mi South 6.9 mph - N/A   Mostly Cloudy
3:00 PM 64.4 °F - 42.8 °F 45% 29.96 in 15.0 mi SE 4.6 mph - N/A   Mostly Cloudy
4:00 PM 66.2 °F - 41.0 °F 40% 29.94 in 15.0 mi SE 11.5 mph - N/A   Mostly Cloudy
5:00 PM 66.2 °F - 42.8 °F 43% 29.94 in 15.0 mi ESE 6.9 mph - N/A   Mostly Cloudy
6:00 PM 65 °F - 41 °F 30% 29.94 in 15 mi Calm Calm - -   Mostly Cloudy
6:00 PM 66.2 °F - 41.0 °F 40% 29.94 in 15.0 mi South 4.6 mph - N/A   Mostly Cloudy
7:00 PM 64.4 °F - 44.6 °F 49% 29.93 in 15.0 mi West 16.1 mph 21.9 mph N/A   Mostly Cloudy
7:21 PM 60.8 °F - 44.6 °F 55% 29.95 in 15.0 mi NW 15.0 mph - N/A Rain Light Rain Showers
7:53 PM 59.0 °F - 46.4 °F 63% 29.95 in 15.0 mi North 15.0 mph 21.9 mph N/A   Mostly Cloudy
8:00 PM 57.2 °F - 46.4 °F 67% 29.95 in 15.0 mi North 15.0 mph - N/A   Mostly Cloudy
9:00 PM 55.4 °F - 46.4 °F 72% 29.94 in 15.0 mi NNE 8.1 mph - N/A   Mostly Cloudy
10:00 PM 53.6 °F - 46.4 °F 77% 29.95 in 15.0 mi NE 10.4 mph - N/A   Mostly Cloudy
11:00 PM 50.0 °F - 44.6 °F 82% 29.95 in 15.0 mi NE 5.8 mph - N/A   Mostly Cloudy